Regional Weather Roundup
Issued by NWS

Home | Current Version | Previous Version | Graphics & Text | Print | Product List | Glossary On
Versions: 1 2 3 4 5 6 7 8 9 10 11 12 13 14 15 16 17 18 19 20 21 22 23 24 25 26 27 28 29 30 31 32 33 34 35 36 37 38 39 40 41 42 43 44 45 46 47 48 49 50
000
ASUS43 KLOT 221706
RWRIL

ILLINOIS REGIONAL WEATHER ROUNDUP
NATIONAL WEATHER SERVICE CHICAGO/ROMEOVILLE IL
1200 PM CDT FRI AUG 22 2014

NOTE: "FAIR" INDICATES FEW OR NO CLOUDS BELOW 12,000 FEET WITH NO
SIGNIFICANT WEATHER AND/OR OBSTRUCTIONS TO VISIBILITY.

* THESE STATIONS ARE NOT UNDER NWS QUALITY CONTROL. THEY ALSO MAY NOT
  REPORT WEATHER SUCH AS PRECIPITATION OR FOG.

ILZ001-002-007-009-015-016-024-221800-
NORTHWEST ILLINOIS

CITY           SKY/WX    TMP DP  RH WIND       PRES   REMARKS
MOLINE         CLOUDY    75  72  90 CALM      29.97R
STERLING*      CLOUDY    73  70  88 W10       29.98R
SAVANNA*       CLOUDY    76  69  78 W6        29.96S
$$

ILZ003-004-008-010-011-017-018-221800-
NORTH CENTRAL ILLINOIS

CITY           SKY/WX    TMP DP  RH WIND       PRES   REMARKS
ROCKFORD       CLOUDY    80  72  76 SW7       29.96S HX  84
FREEPORT*      CLOUDY    78  74  87 SW10      29.98S HX  81
ROCHELLE*      CLOUDY    75  69  81 W10       29.97R
DE KALB*       CLOUDY    76  67  75 SW9       29.97S
PERU*          LGT RAIN  74  71  91 SW12      29.97R
$$

ILZ005-006-012>014-019>023-221800-
NORTHEAST ILLINOIS

CITY           SKY/WX    TMP DP  RH WIND       PRES   REMARKS
CHICAGO-OHARE  CLOUDY    80  73  79 W10       29.96S HX  84
CHICAGO-MIDWAY CLOUDY    80  73  79 W10       29.96S HX  84
AURORA         CLOUDY    79  69  71 W10       29.96F HX  81
LANSING*       CLOUDY    79  72  80 W13       29.97S HX  82
JOLIET*        CLOUDY    77  71  80 W3        29.97F
WAUKEGAN       CLOUDY    75  72  90 VRB5      29.96S
DUPAGE AIRPORT CLOUDY    80  73  79 W7        29.96S HX  84
KANKAKEE*      CLOUDY    78  73  84 SW6       29.97F HX  81
WHEELING       CLOUDY    82  74  76 SW6       29.97S HX  88
MORRIS*        CLOUDY    78  71  79 CALM      29.96S HX  80
ROMEOVILLE*    CLOUDY    78  73  86 W5        29.97F HX  80
NORTHERLY ISL    N/A     79  72  79 W8          N/A  HX  82
$$

LMZ740>746-221800-
SOUTHERN LAKE MICHIGAN

STATION/POSITION SKY/WX   TEMP    WIND        PRES    VSBY  WAVE
                          AIR SEA DIR/SP/G                  HT/PER
                          (F)     (DEG/KT/KT) (MB)    (MI)  (FT/S)
SOUTHERN BUOY              71 69  190/  6/  6 1014.5F         0
WAUKEGAN HARBOR            76     150/  3/  4   N/A
HARRISON CRIB              78     250/  8/ 11   N/A
BURNHAM HARBOR             79     260/  7/  9   N/A
CALUMET HARBOR             79     240/  2/ 11 1013.3R
MICHIGAN CITY              76     210/  7/ 10   N/A
MICHIGAN CITY 6N           73 71  220/  4/  4   N/A           1
ST. JOSEPH                 75 72  220/  2/  6   N/A           1
$$

ILZ025>027-034>036-040-047-049-050-058-095>099-221800-
WEST-CENTRAL ILLINOIS

CITY           SKY/WX    TMP DP  RH WIND       PRES   REMARKS
QUINCY         CLOUDY    81  75  82 SE6       30.00S HX  87
GALESBURG*     CLOUDY    76  74  93 S7        30.00R
MACOMB*        CLOUDY    77  76  98 SE8       30.02F
JACKSONVILLE*  LGT RAIN  82  77  85 S6        30.03R HX  89
PITTSFIELD*    CLOUDY    82  74  79 S5        30.02F HX  87
$$

ILZ028>032-037-038-041>044-048-051>054-059>061-221800-
CENTRAL ILLINOIS

CITY           SKY/WX    TMP DP  RH WIND       PRES   REMARKS
PONTIAC        CLOUDY    75  73  94 S7        29.96F
DECATUR        CLOUDY    77  73  87 SE5       30.00F
PEORIA         LGT RAIN  74  71  91 S7        29.99F FOG
LACON*         RAIN      72  70  95 SW12      29.96F
LINCOLN*       CLOUDY    77  74  89 S5        29.97F
SPRINGFIELD    CLOUDY    80  74  81 S7        30.00F HX  85
TAYLORVILLE    CLOUDY    79  73  83 SE7       30.01F HX  82
$$

ILZ033-039-045-046-055>057-062-063-221800-
EAST-CENTRAL ILLINOIS

CITY           SKY/WX    TMP DP  RH WIND       PRES   REMARKS
CHAMPAIGN      LGT RAIN  74  72  93 SW10      29.99F
DANVILLE*      HVY RAIN  74  72  91 CALM      29.98R
RANTOUL*       LGT RAIN  75  71  86 W9        29.99F
MATTOON        CLOUDY    79  75  87 S3        30.01R HX  83
PARIS*         CLOUDY    79  75  86 SW8       30.00F HX  83
$$

ILZ079-100>102-221800-
SOUTHWEST ILLINOIS

CITY           SKY/WX    TMP DP  RH WIND       PRES   REMARKS
BELLEVILLE     PTSUNNY   90  76  64 E2        30.01S HX 101
CAHOKIA*       MOSUNNY   90  73  57 NW6       30.01S HX  98
SPARTA*        PTSUNNY   85  75  71 CALM      30.04S HX  93
$$

ILZ064>066-069>071-074>076-080>082-084>086-088>090-092>094-221800-
SOUTH-CENTRAL ILLINOIS

CITY           SKY/WX    TMP DP  RH WIND       PRES   REMARKS
CARBONDALE     PTSUNNY   86  75  69 W5        30.04S HX  95
CAIRO*         PTSUNNY   89  77  67 SW5       30.05S HX 102
MARION         PTSUNNY   88  77  70 SW7       30.05S HX 100
MT. VERNON     PTSUNNY   86  73  66 SW6       30.03F HX  93
CENTRALIA*     CLOUDY    92  73  53 SW5       30.03F HX 101
SALEM*         CLOUDY    85  76  73 W3        30.03S HX  95
METROPOLIS*    PTSUNNY   87  73  62 SW5       30.05S HX  94
$$

ILZ067-068-072-073-078-083-087-091-221800-
SOUTHEAST ILLINOIS

CITY           SKY/WX    TMP DP  RH WIND       PRES   REMARKS
LAWRENCEVILLE  PTSUNNY   85  74  69 NW7       30.03R HX  92
FLORA*         PTSUNNY   84  73  70 W5        30.03S HX  90
FAIRFIELD*     PTSUNNY   84  79  84 CALM      30.03S HX  96
HARRISBURG*    PTSUNNY   87  76  68 SW8       30.05S HX  97
ROBINSON*      PTSUNNY   84  76  75 CALM      30.03S HX  93
CARMI*         MOSUNNY   90  77  66 W6        30.03R HX 102
$$

ABBREVIATIONS USED IN REMARKS
   TC - TEMPERATURE IN CELSIUS
  WCI - WIND CHILL INDEX
   HX - HEAT INDEX
  VSB - VISIBILITY
$$




USA.gov is the U.S. government's official web portal to all federal, state and local government web resources and services.